Theta_e
318 311 312 308 297 293 289 292 294 296 295 298 300 298 296 297 297 293 313 322 333 338 345 348 351 354 354 354 353 352 351 349 349 348 348 348 349 350 350 349 347 345 344 343 342 341 339 336 335
313 315 308 300 292 287 288 293 295 297 299 299 299 298 297 296 305 310 314 321 336 339 344 347 348 353 354 353 352 352 352 351 349 348 348 348 348 349 348 348 346 344 342 341 339 339 335 333 331
313 311 301 295 289 287 289 292 293 297 298 298 296 299 298 300 306 311 316 323 336 338 343 346 347 352 353 352 351 351 352 352 351 349 349 349 349 348 347 346 344 342 341 338 337 334 331 328 327
308 305 299 291 289 291 292 294 296 296 298 298 297 298 299 304 306 314 321 324 334 337 341 344 348 352 353 351 351 351 352 352 351 352 350 349 347 346 344 344 343 340 338 336 334 331 328 324 322
304 298 291 289 289 292 294 296 297 296 296 297 297 296 296 306 313 317 320 321 332 334 338 343 347 350 351 351 351 351 350 351 352 352 351 349 347 344 341 341 341 340 337 333 332 328 324 320 318
299 295 289 287 290 292 295 296 296 294 294 296 295 298 296 305 307 315 320 319 323 333 336 342 341 344 347 349 349 349 349 350 351 350 349 349 345 341 339 337 337 336 334 332 330 325 322 319 315
297 292 288 289 289 292 296 296 294 293 293 295 300 293 298 301 306 311 318 319 319 326 335 338 342 342 340 343 344 345 347 348 348 349 348 346 343 340 337 337 336 334 333 330 327 323 320 317 314
298 293 290 289 289 290 296 297 296 295 295 299 299 293 296 304 307 307 313 318 318 320 333 335 337 340 342 343 337 339 341 342 343 343 341 337 336 336 334 332 335 334 332 329 326 322 320 317 312
299 290 287 289 290 291 296 295 297 297 295 296 299 296 299 303 306 308 308 310 313 318 322 331 335 338 339 338 338 335 337 337 337 337 333 331 332 330 328 327 332 333 330 329 325 322 320 315 308
295 288 290 294 294 293 296 295 295 295 295 295 295 298 301 304 305 305 305 306 308 312 318 324 330 334 335 340 336 338 339 340 339 336 333 334 329 325 325 322 327 330 328 329 325 322 318 307 295
296 291 295 297 298 297 297 296 296 294 293 296 297 296 299 302 303 303 303 304 307 309 314 321 326 331 333 336 336 335 338 337 334 331 330 330 327 324 320 318 319 318 319 317 319 315 306 299 296
293 299 298 300 299 297 295 298 297 296 299 300 300 299 298 299 298 297 298 300 300 303 310 316 322 326 329 332 332 335 337 336 335 329 326 328 326 323 320 316 314 313 312 310 308 305 302 298 296
294 295 298 300 298 297 297 296 295 297 300 300 299 299 297 296 296 297 298 298 298 298 300 307 318 324 327 327 328 331 334 333 333 331 326 328 326 324 320 317 314 311 308 307 304 303 299 295 294
294 295 296 297 297 296 295 293 295 298 296 299 297 297 295 296 295 295 297 296 297 298 298 300 314 322 324 327 324 329 332 333 330 329 327 327 327 324 319 315 311 309 308 305 304 302 296 294 293
296 292 294 294 295 295 295 292 293 298 296 296 296 294 295 295 295 294 295 295 295 296 297 298 301 317 320 324 323 323 326 325 326 324 324 324 325 325 318 314 312 311 307 305 302 298 294 293 292
291 289 286 293 294 294 293 289 296 297 295 295 293 292 293 293 293 294 294 294 295 295 296 298 301 304 316 318 320 321 321 321 322 322 322 322 322 323 317 314 313 312 309 304 300 296 293 292 291
288 283 286 290 295 293 291 288 295 297 295 294 291 291 292 292 293 293 294 293 293 294 295 296 299 299 309 315 317 318 318 318 318 319 324 323 323 320 317 314 313 310 309 301 299 293 293 291 290
284 284 286 287 292 291 290 290 293 296 294 292 290 289 291 291 291 293 293 293 293 293 294 295 297 298 300 307 310 311 313 314 314 317 321 322 320 316 314 312 310 308 305 298 295 293 291 291 290
287 286 286 288 293 289 290 289 293 294 294 290 289 290 290 290 292 292 292 292 292 292 293 293 294 294 298 298 301 304 305 306 311 314 317 319 319 315 313 311 309 305 304 302 297 292 291 289 288
288 286 286 289 292 289 289 289 292 292 291 290 289 289 289 289 290 291 290 290 290 290 291 292 292 293 294 296 297 299 299 298 300 304 307 309 314 315 311 309 307 305 300 298 295 294 289 289 288
288 286 286 288 289 288 286 286 289 289 291 291 291 290 289 288 288 288 288 287 287 287 288 291 292 292 292 293 295 295 296 295 295 296 297 301 304 307 308 307 304 302 300 298 296 294 293 291 288
287 291 290 288 284 281 286 278 285 288 287 288 288 287 287 287 287 288 287 287 287 286 287 289 290 291 291 291 291 290 290 289 290 291 292 294 296 296 299 302 303 301 299 297 296 295 293 292 290
289 290 288 286 283 281 281 279 283 287 285 285 285 286 286 286 286 286 286 287 287 286 285 286 288 288 289 289 290 289 288 289 289 289 289 290 291 291 291 292 295 298 299 297 295 294 292 292 292
291 287 286 283 282 277 281 281 282 284 286 285 286 286 286 286 286 286 287 286 285 284 284 285 286 286 287 287 286 286 286 286 285 286 286 287 288 289 289 289 289 291 292 294 295 294 293 292 292
287 284 279 276 274 276 283 280 284 286 288 288 285 284 285 285 284 284 284 284 284 283 283 284 284 284 285 285 285 284 284 284 283 284 284 284 285 286 287 287 287 287 288 289 290 291 292 292 291
285 285 278 270 273 276 282 278 282 285 287 287 286 286 286 285 285 284 285 284 284 283 282 282 283 283 284 284 283 283 283 283 283 283 283 283 283 284 285 285 285 286 287 287 287 287 287 289 290
286 283 286 280 270 273 280 281 285 286 284 285 285 285 285 285 285 284 284 285 284 284 283 282 281 282 282 283 283 283 282 281 282 282 282 283 283 284 284 284 284 284 284 284 285 284 284 284 285
287 289 281 280 270 270 277 279 280 282 282 284 284 284 285 285 285 284 284 283 284 284 283 283 282 281 282 282 283 282 282 282 281 280 279 279 281 282 282 282 283 283 283 283 283 283 284 283 283
284 283 283 283 279 271 269 276 284 285 285 284 284 285 284 284 285 284 283 284 284 283 283 283 282 281 281 281 282 282 281 281 281 280 280 279 279 279 279 280 280 281 281 281 281 281 282 281 282
286 284 284 277 275 277 277 278 288 288 286 285 285 285 284 284 283 283 281 281 281 280 280 280 281 281 281 281 281 281 281 280 279 279 279 280 279 280 278 279 279 279 279 279 280 280 281 281 280
Wind_Speed
6 6 2 5 6 6 2 2 1 1 2 2 1 2 2 1 3 4 3 7 8 10 11 14 16 15 13 14 14 14 13 12 11 10 10 10 10 9 10 11 11 10 8 7 7 8 7 6 7
4 3 5 3 7 4 5 4 1 2 3 2 1 2 2 0 2 2 3 8 9 11 11 11 13 15 15 14 14 13 13 13 13 12 11 10 10 10 8 11 11 10 7 6 5 7 6 6 5
4 3 5 5 4 4 4 3 2 2 1 1 2 0 1 2 2 6 5 8 8 9 11 11 13 15 14 14 14 14 13 13 13 14 13 12 11 10 10 9 9 8 6 6 6 6 5 4 4
4 5 5 6 1 2 6 5 4 2 2 2 3 1 3 1 3 6 6 9 9 8 9 11 16 16 15 14 13 13 13 14 13 13 14 12 11 10 10 8 7 3 5 4 5 5 4 4 4
5 4 5 3 4 3 1 3 2 2 1 1 1 1 4 4 3 3 5 7 9 7 7 10 17 16 15 15 15 14 12 11 10 13 14 13 13 11 10 8 5 8 5 4 5 4 4 4 4
5 4 5 0 4 3 3 2 3 2 2 3 3 3 4 2 2 5 6 6 7 8 6 9 13 12 13 14 15 14 14 13 12 13 13 14 14 11 9 7 7 7 6 5 5 4 4 4 4
6 4 3 3 3 2 3 1 3 2 1 1 2 2 3 4 7 5 6 4 5 6 6 5 8 11 12 12 12 12 13 12 11 11 12 14 14 12 10 8 7 8 8 7 5 4 4 4 4
5 5 1 3 3 3 6 6 0 2 2 3 4 2 4 4 5 4 3 4 4 6 7 8 7 8 9 10 13 12 11 10 10 9 10 12 13 12 12 10 9 10 9 9 7 6 6 4 4
3 5 1 3 2 3 4 6 6 3 2 3 3 3 4 1 4 2 1 2 3 4 7 6 8 8 8 7 8 14 16 14 12 8 10 10 5 7 9 8 10 10 9 9 8 7 6 5 2
5 4 6 3 2 2 3 0 3 4 7 6 4 4 1 2 3 6 6 8 5 7 7 8 8 9 8 7 6 7 6 7 6 6 7 5 6 5 6 7 10 9 9 10 10 8 6 4 1
3 5 4 3 4 3 3 5 2 2 5 8 11 4 4 4 7 8 9 9 10 6 3 9 11 10 11 9 6 3 3 3 3 6 7 6 4 3 3 2 3 3 6 3 5 4 3 4 2
1 6 5 5 1 3 3 4 7 5 10 5 9 6 5 9 7 6 9 8 5 7 7 6 8 9 9 6 6 7 6 5 5 4 6 5 4 5 4 3 4 4 3 5 4 3 4 3 3
4 4 3 6 9 5 3 8 5 9 11 10 8 6 7 7 9 7 8 8 8 8 8 8 5 8 8 7 5 6 9 9 8 7 6 6 6 6 5 5 4 4 4 4 4 4 4 3 3
0 3 6 7 8 5 5 3 5 9 0 11 5 10 10 10 10 8 14 12 12 10 11 11 7 9 7 9 7 7 6 9 7 6 7 8 7 6 6 5 4 4 4 4 4 5 4 4 3
2 5 8 7 3 5 5 2 7 12 6 9 7 8 9 10 11 11 9 9 11 10 10 11 9 5 6 8 7 5 5 5 5 5 6 7 7 8 7 5 6 6 5 6 3 3 2 2 1
2 3 4 4 2 1 3 9 8 10 6 7 8 8 10 12 11 10 10 10 11 12 14 12 11 9 1 2 2 3 4 4 4 4 4 6 6 7 6 6 6 6 5 5 4 4 2 2 3
3 3 5 8 4 2 3 6 9 10 6 8 7 7 8 9 13 12 12 11 12 12 13 15 14 13 8 6 4 4 2 2 2 2 3 4 6 6 6 6 6 6 5 4 5 2 4 3 3
6 4 5 6 3 2 6 9 10 16 5 4 9 7 9 11 11 10 12 12 12 12 13 13 13 17 11 5 5 4 4 4 3 2 2 4 4 5 4 3 5 5 5 3 3 3 2 3 4
3 4 6 4 8 2 8 5 13 9 7 7 7 8 9 11 8 9 10 11 13 15 16 16 17 16 12 6 5 5 4 4 5 7 7 2 2 5 4 3 3 4 5 8 7 3 4 1 3
4 5 6 6 5 1 7 10 12 7 5 6 9 8 9 8 10 10 11 12 14 14 15 16 16 16 12 9 4 4 3 4 3 7 10 12 8 5 0 3 4 4 2 2 4 4 2 2 4
5 6 5 7 5 4 4 7 7 5 9 12 11 10 9 8 8 9 11 11 12 15 14 15 15 15 14 12 8 6 5 6 8 10 10 11 12 12 8 6 4 1 2 3 4 4 5 5 4
5 7 6 4 3 4 3 6 7 3 6 9 7 7 6 7 7 7 9 12 13 10 10 12 13 15 14 15 12 13 8 6 4 4 5 8 12 12 12 11 8 5 2 3 4 4 4 2 4
8 4 3 1 2 1 3 0 8 6 4 5 5 6 6 6 6 7 7 8 7 8 9 9 12 14 13 14 13 9 10 6 6 7 10 11 10 10 11 10 9 7 5 4 4 4 5 4 3
4 4 6 4 3 2 6 7 7 4 5 7 6 6 7 6 5 6 5 5 6 6 7 9 12 13 12 12 13 13 12 10 10 10 9 8 7 8 12 10 8 7 7 6 5 5 5 5 6
5 6 3 4 2 7 5 3 7 8 3 13 13 8 7 6 6 6 6 6 6 7 7 8 9 11 10 12 12 12 11 10 10 9 7 9 8 8 12 12 10 7 6 6 5 5 5 5 5
6 8 7 7 4 5 5 6 3 4 8 11 8 8 7 6 5 6 6 5 5 7 7 8 9 9 9 10 10 9 10 6 7 8 7 7 7 7 10 10 10 10 8 7 6 4 4 4 4
4 4 3 6 2 3 5 1 3 3 5 6 7 6 7 7 5 5 5 6 6 5 6 7 6 6 7 6 6 7 6 7 6 7 6 6 6 8 10 10 11 10 9 8 8 5 5 5 4
4 5 3 3 2 5 5 6 6 8 9 7 7 7 7 6 7 6 5 6 4 5 5 6 6 6 4 6 6 4 4 5 4 4 6 6 6 5 7 7 8 10 10 10 8 6 6 6 5
2 3 2 3 6 7 2 7 3 10 13 14 11 10 9 9 7 7 6 6 6 5 4 4 4 5 5 6 5 6 6 6 6 5 5 4 4 4 4 6 6 7 8 7 8 10 9 7 8
3 6 6 6 6 3 3 12 2 8 12 10 10 10 9 5 7 7 7 6 6 6 5 4 3 3 3 3 3 4 4 6 6 6 7 7 8 7 7 9 9 9 8 7 6 9 8 10 12
Wind_Direction
323 318 94 42 57 64 328 284 113 31 4 231 240 100 173 192 152 211 285 173 145 150 168 172 173 172 161 149 149 153 155 156 155 150 146 145 146 141 146 133 122 113 107 106 113 111 104 99 92
343 357 40 80 81 73 285 277 133 215 215 178 30 64 42 68 203 173 116 191 164 156 165 177 176 173 167 160 159 162 164 164 163 160 159 157 158 155 155 132 128 118 106 108 111 107 110 103 92
329 44 77 88 108 157 179 234 219 313 242 114 44 39 174 223 351 180 237 148 139 156 167 173 176 177 175 171 169 169 174 173 171 174 176 171 156 138 129 128 125 115 120 132 128 117 100 83 69
25 11 29 79 197 239 173 218 237 133 351 10 140 1 316 0 182 200 159 142 147 158 169 172 176 180 179 177 178 180 178 178 180 182 171 166 152 142 142 145 161 152 162 152 141 125 115 91 67
37 56 51 45 284 280 249 192 107 48 282 300 359 282 299 346 3 91 161 147 159 167 171 173 177 181 180 177 178 180 182 187 190 182 179 173 164 161 159 168 177 149 166 176 151 139 116 84 67
39 91 59 102 285 307 301 279 86 63 29 324 11 347 278 303 202 204 188 178 168 169 174 175 180 178 179 181 181 184 186 189 197 195 192 174 164 166 168 174 183 195 190 188 158 145 127 113 86
102 78 185 222 258 289 238 331 112 176 88 236 182 279 280 269 240 197 201 184 165 168 164 174 185 187 179 181 185 187 190 194 192 192 183 174 165 167 167 167 174 195 194 189 167 160 144 121 105
102 92 20 283 315 336 331 337 343 354 327 323 157 231 294 259 189 205 191 212 204 181 183 180 181 191 191 190 183 186 192 196 199 200 190 169 166 163 161 162 173 187 193 187 174 173 163 139 114
85 61 216 234 41 293 337 16 323 311 14 327 282 171 253 57 127 166 208 229 227 225 204 188 185 188 192 190 201 191 192 190 197 202 184 174 165 160 163 168 176 183 193 189 182 184 165 142 134
87 113 225 198 167 284 292 347 302 357 343 294 270 295 357 136 180 207 233 235 226 221 214 194 189 189 184 199 202 205 195 199 193 179 179 171 165 164 167 171 178 180 188 182 184 184 155 117 94
155 190 229 231 199 209 249 292 236 28 304 240 278 268 293 189 239 240 249 233 224 233 222 202 195 191 186 193 188 194 203 203 196 180 170 162 153 152 154 163 176 172 177 167 173 163 140 172 167
150 248 231 273 330 339 277 320 309 207 242 221 271 278 273 305 299 295 288 288 290 285 289 254 199 191 197 187 183 189 193 198 209 201 171 162 158 168 171 172 187 180 171 168 158 160 174 211 213
186 259 275 279 290 249 248 245 230 266 262 292 286 336 12 18 30 25 23 20 8 9 326 262 236 209 195 185 182 180 197 205 210 196 182 173 172 181 173 181 172 180 167 170 173 176 187 213 200
298 271 273 275 267 267 248 309 128 275 315 308 326 28 59 47 22 11 16 8 2 347 346 337 238 205 183 191 183 188 186 197 190 182 181 185 175 180 180 175 176 187 178 176 174 181 192 210 203
317 326 320 276 260 236 161 313 229 249 324 286 4 70 67 47 37 27 7 4 350 342 332 352 341 238 206 198 180 171 178 167 180 187 178 183 185 183 179 178 177 188 182 167 161 172 167 192 230
334 32 340 281 163 158 119 264 272 282 290 296 49 88 70 48 37 23 15 8 1 357 359 354 0 358 222 235 165 154 163 168 176 181 185 193 188 184 170 174 189 183 174 165 164 163 181 221 216
347 225 211 308 223 146 140 251 275 289 277 350 67 78 72 54 38 22 15 13 10 5 5 6 9 12 11 73 72 56 78 133 187 191 212 196 188 180 180 181 188 168 175 171 172 155 159 183 201
215 213 234 226 272 115 244 253 269 281 318 103 114 95 78 64 37 22 19 18 19 18 19 19 18 16 7 30 54 46 48 22 24 298 211 186 175 169 160 163 161 154 168 160 168 164 157 168 172
184 205 241 282 267 210 266 284 282 260 305 84 102 91 82 64 55 37 28 28 28 26 27 24 26 16 25 6 6 26 33 357 22 16 10 31 159 156 169 177 160 151 184 193 188 136 184 179 144
256 255 259 268 253 215 286 286 277 352 32 108 106 83 74 67 45 37 32 33 32 31 30 31 30 26 25 25 4 16 9 29 23 21 28 21 13 17 341 179 187 177 141 161 173 165 149 187 186
216 198 225 237 332 283 335 294 300 55 75 75 64 79 72 69 57 35 35 34 37 36 27 30 30 33 29 22 23 31 31 18 20 18 18 18 21 22 20 13 5 38 143 191 200 204 193 200 213
274 200 209 207 104 239 25 284 304 143 96 71 72 68 71 70 55 47 41 39 35 28 34 43 40 39 34 29 36 41 44 41 354 355 359 23 29 29 25 14 13 11 341 298 237 209 223 151 209
223 152 167 158 184 74 279 18 260 111 130 126 111 99 90 86 86 73 57 55 40 33 32 38 46 46 39 44 48 50 44 26 11 17 21 14 10 23 23 22 22 11 356 324 291 276 228 211 209
132 79 54 54 93 303 220 162 278 196 197 147 140 132 118 101 82 70 60 65 54 34 43 44 50 43 40 43 42 48 48 36 29 21 22 13 9 8 12 10 13 12 9 357 324 292 270 253 250
90 75 314 337 3 227 176 129 244 323 298 154 140 138 135 128 113 100 78 59 50 44 40 58 56 54 44 50 47 45 43 37 34 22 23 20 12 10 1 357 1 2 354 353 355 332 301 279 264
174 159 164 223 214 249 280 242 273 20 64 104 124 138 137 142 135 125 118 99 76 64 51 52 49 49 48 55 44 38 49 40 32 19 16 22 18 5 359 354 351 353 358 360 357 347 328 314 290
185 179 191 107 44 49 234 53 131 84 87 114 140 153 166 168 157 150 122 110 100 88 78 77 70 59 54 64 64 47 36 52 35 14 19 17 12 2 357 355 348 351 355 358 351 349 330 327 294
147 160 77 359 184 245 277 259 208 192 185 178 182 183 188 182 185 162 135 123 123 108 95 80 78 81 72 67 63 65 59 58 48 13 14 4 342 353 337 340 345 341 342 347 351 340 331 329 309
142 204 153 146 154 179 232 259 213 175 180 185 198 203 195 195 186 171 162 152 138 125 125 125 96 73 53 48 40 29 21 21 13 7 349 348 329 331 324 323 316 314 318 331 337 331 326 322 310
210 188 164 153 243 246 174 257 13 169 177 176 201 208 214 191 181 167 161 156 157 169 170 169 169 148 128 110 72 32 10 1 350 342 333 338 330 326 329 335 328 324 320 314 309 306 307 310 311